DW7898 Weather Reports


time (UTC)temp
F
wind
direction
speed
knots
gust
knots
rain 1hr
in
rain 24hr
in
rain mn
in
humidity
%
barometer
mb
20260507101358 65 142 2.6 10.4 0.00 0.00 0.00 59 1015.2
20260507100354 65 131 3.5 8.7 0.00 0.00 0.00 60 1015.2
20260507095353 64 164 1.7 7.8 0.00 0.00 0.00 61 1015.1
20260507094354 65 132 2.6 7.0 0.00 0.00 0.00 61 1015.3
20260507093340 65 114 0.0 7.8 0.00 0.00 0.00 61 1015.3
20260507092356 64 123 0.0 5.2 0.00 0.00 0.00 63 1015.3
20260507091341 64 111 3.5 7.0 0.00 0.00 0.00 62 1015.3
20260507090346 65 113 2.6 7.8 0.00 0.00 0.00 61 1015.1
20260507085342 65 137 1.7 4.3 0.00 0.00 0.00 62 1015.1
20260507084349 65 98 0.9 4.3 0.00 0.00 0.00 64 1015.2
20260507083357 64 0 0.0 3.5 0.00 0.00 0.00 66 1015.2
20260507082354 63 0 2.6 5.2 0.00 0.00 0.00 67 1015.2
20260507081351 62 327 1.7 4.3 0.00 0.00 0.00 69 1015.3
20260507080356 61 336 1.7 4.3 0.00 0.00 0.00 70 1015.4
20260507075337 60 336 0.9 3.5 0.00 0.00 0.00 71 1015.6
20260507074344 59 338 2.6 3.5 0.00 0.00 0.00 71 1015.5
20260507073335 59 354 1.7 3.5 0.00 0.00 0.00 72 1015.5
20260507072353 59 0 0.9 3.5 0.00 0.00 0.00 73 1015.5
20260507071337 59 2 2.6 4.3 0.00 0.00 0.00 73 1015.5
20260507070339 58 49 0.9 1.7 0.00 0.00 0.00 74 1015.4
20260507065356 58 49 1.7 2.6 0.00 0.00 0.00 74 1015.2
20260507064340 58 49 0.0 3.5 0.00 0.00 0.00 76 1015.3
20260507063342 57 50 1.7 4.3 0.00 0.00 0.00 77 1015.0
20260507062339 56 62 1.7 4.3 0.00 0.00 0.00 79 1015.0
20260507061340 56 68 0.0 4.3 0.00 0.00 0.00 81 1015.1
20260507060344 56 46 1.7 3.5 0.00 0.00 0.00 83 1014.9
20260507055346 56 40 0.0 2.6 0.00 0.00 0.00 84 1015.0
20260507054351 55 39 0.0 1.7 0.00 0.00 0.00 84 1014.8
20260507053339 55 40 0.0 1.7 0.00 0.00 0.00 85 1014.9
20260507052337 55 39 0.0 0.0 0.00 0.00 0.00 85 1014.7
20260507051343 54 39 0.0 0.0 0.00 0.00 0.00 85 1014.5
20260507050345 54 39 0.0 0.0 0.00 0.00 0.00 84 1014.5
20260507045340 54 39 0.0 0.0 0.00 0.00 0.00 84 1014.3
20260507044338 54 48 0.0 0.0 0.00 0.00 0.00 84 1014.4
20260507043341 54 48 0.0 0.0 0.00 0.00 0.00 83 1014.5
20260507042339 54 48 0.0 0.0 0.00 0.00 0.00 83 1014.3
20260507041343 55 48 0.0 0.0 0.00 0.00 0.00 83 1014.4
20260507040349 55 48 0.0 0.0 0.00 0.00 0.00 82 1014.3
20260507035347 55 48 0.0 0.0 0.00 0.00 0.00 83 1014.4
20260507034350 55 48 0.0 0.0 0.00 0.00 0.00 82 1014.3
20260507033357 55 48 0.0 0.0 0.00 0.00 0.00 81 1014.4
20260507032353 56 48 0.0 0.0 0.00 0.00 0.00 82 1014.4
20260507031337 56 48 0.0 0.0 0.00 0.00 0.00 82 1014.4
20260507030338 56 48 0.0 0.0 0.00 0.00 0.00 81 1014.4
20260507025344 56 48 0.0 0.0 0.00 0.00 0.00 81 1014.4
20260507024350 57 48 0.0 2.6 0.00 0.00 0.00 81 1014.4
20260507023355 57 47 0.9 4.3 0.00 0.00 0.00 81 1014.3
20260507022355 57 43 1.7 3.5 0.00 0.00 0.00 80 1014.3
20260507021341 57 40 1.7 4.3 0.00 0.00 0.00 80 1014.4
20260507020342 57 36 0.0 1.7 0.00 0.00 0.00 80 1014.4
20260507015340 57 36 0.9 3.5 0.00 0.00 0.00 80 1014.4
20260507014342 58 35 0.0 0.0 0.00 0.00 0.00 79 1014.6
20260507013343 58 35 0.0 0.0 0.00 0.00 0.00 79 1014.5
20260507012337 57 35 0.0 0.0 0.00 0.00 0.00 78 1014.5
20260507011336 57 35 0.9 2.6 0.00 0.00 0.00 76 1014.6
20260507010341 59 34 0.0 3.5 0.00 0.00 0.00 77 1014.5
20260507005340 59 29 1.7 4.3 0.00 0.00 0.00 77 1014.5
20260507004343 59 29 1.7 3.5 0.00 0.00 0.00 77 1014.6
20260507003351 59 27 0.0 7.0 0.00 0.00 0.00 76 1014.7
20260507002350 59 11 4.3 6.1 0.00 0.00 0.00 76 1014.7
20260507001352 59 54 0.0 2.6 0.00 0.00 0.00 76 1014.8
20260507000357 59 54 0.0 3.5 0.00 0.00 0.00 76 1014.9
20260506235358 59 48 0.9 3.5 0.00 0.00 0.00 76 1014.8
20260506234342 59 46 2.6 5.2 0.00 0.00 0.00 76 1014.8
20260506233350 59 50 3.5 6.1 0.00 0.00 0.00 76 1014.8
20260506232347 59 36 3.5 7.0 0.00 0.00 0.00 76 1014.8
20260506231354 59 55 2.6 4.3 0.00 0.00 0.00 76 1014.8
20260506230336 59 56 1.7 3.5 0.00 0.00 0.00 75 1014.8
20260506225338 60 55 1.7 5.2 0.00 0.00 0.00 75 1014.8
20260506224340 60 39 3.5 6.1 0.00 0.00 0.00 75 1014.8
20260506223342 60 32 2.6 4.3 0.00 0.00 0.00 75 1014.8
20260506222337 60 44 2.6 5.2 0.00 0.00 0.00 74 1014.8
20260506221335 60 34 1.7 3.5 0.00 0.00 0.00 72 1014.8
20260506220340 61 25 1.7 2.6 0.00 0.00 0.00 72 1014.7
20260506215339 61 25 0.9 2.6 0.00 0.00 0.00 71 1014.6
20260506214340 61 26 0.0 1.7 0.00 0.00 0.00 71 1014.7
20260506213343 61 26 0.0 1.7 0.00 0.00 0.00 70 1014.6
20260506212341 61 26 0.9 3.5 0.00 0.00 0.00 70 1014.7
20260506211351 61 19 0.9 1.7 0.00 0.00 0.00 69 1014.5
20260506210355 61 19 1.7 3.5 0.00 0.00 0.00 68 1014.6
20260506205338 62 164 1.7 2.6 0.00 0.00 0.00 68 1014.6
20260506204341 62 164 0.0 0.9 0.00 0.00 0.00 68 1014.4
20260506203348 62 164 0.0 1.7 0.00 0.00 0.00 68 1014.2
20260506202348 62 178 0.9 2.6 0.00 0.00 0.00 68 1014.1
20260506201351 62 203 1.7 3.5 0.00 0.00 0.00 68 1014.1
20260506200353 62 225 0.9 3.5 0.00 0.00 0.00 68 1013.9
20260506195350 62 227 0.9 2.6 0.00 0.00 0.00 67 1013.7
20260506194354 63 223 0.9 3.5 0.00 0.00 0.00 67 1013.6
20260506193341 63 223 0.9 2.6 0.00 0.00 0.00 66 1013.4
20260506192340 63 223 1.7 3.5 0.00 0.00 0.00 67 1013.2
20260506191344 63 227 0.9 3.5 0.00 0.00 0.00 67 1013.1
20260506190354 63 228 0.9 4.3 0.00 0.00 0.00 67 1013.0
20260506185337 64 196 1.7 5.2 0.00 0.00 0.00 66 1012.9
20260506184337 64 193 1.7 6.1 0.00 0.00 0.00 65 1012.8
20260506183340 64 123 3.5 7.8 0.00 0.00 0.00 62 1012.5
20260506182336 65 132 0.9 6.1 0.00 0.00 0.00 61 1012.5
20260506181342 65 105 1.7 8.7 0.00 0.00 0.00 62 1012.4
20260506180347 65 122 4.3 8.7 0.00 0.00 0.00 61 1012.4
20260506175348 66 222 2.6 8.7 0.00 0.00 0.00 61 1012.1
20260506174340 66 179 0.9 5.2 0.00 0.00 0.00 60 1012.1
20260506173357 66 103 1.7 7.8 0.00 0.00 0.00 58 1012.1
20260506172357 66 177 4.3 8.7 0.00 0.00 0.00 56 1012.1
20260506171358 66 120 3.5 8.7 0.00 0.00 0.00 54 1012.0
20260506170336 66 120 5.2 8.7 0.00 0.00 0.00 53 1012.0
20260506165338 66 138 7.0 8.7 0.00 0.00 0.00 51 1011.8
20260506164343 66 112 4.3 7.8 0.00 0.00 0.00 48 1011.8
20260506163345 66 124 5.2 10.4 0.00 0.00 0.00 45 1011.9
20260506162339 66 82 4.3 12.2 0.00 0.00 0.00 45 1011.7
20260506161341 66 150 4.3 11.3 0.00 0.00 0.00 43 1011.5
20260506160350 66 189 3.5 11.3 0.00 0.00 0.00 44 1011.4
20260506155351 67 136 4.3 10.4 0.00 0.00 0.00 44 1011.4
20260506154336 67 136 5.2 12.2 0.00 0.00 0.00 45 1011.4
20260506153339 67 180 3.5 12.2 0.00 0.00 0.00 45 1011.3
20260506152357 67 113 4.3 18.2 0.00 0.00 0.00 44 1011.4
20260506151338 67 128 4.3 17.4 0.00 0.00 0.00 43 1011.4
20260506150339 67 171 6.1 16.5 0.00 0.00 0.00 44 1011.5
20260506145358 67 95 6.1 12.2 0.00 0.00 0.00 42 1011.4
20260506144356 67 113 5.2 14.8 0.00 0.00 0.00 41 1011.5
20260506143357 67 208 3.5 13.0 0.00 0.00 0.00 41 1011.6
20260506142352 67 143 7.0 15.6 0.00 0.00 0.00 41 1011.7
20260506141354 67 132 4.3 13.9 0.00 0.00 0.00 41 1011.7
20260506140348 67 156 5.2 13.9 0.00 0.00 0.00 40 1011.8
20260506135347 67 109 7.0 14.8 0.00 0.00 0.00 39 1012.0
20260506134351 68 135 9.6 14.8 0.00 0.00 0.00 39 1011.9
20260506133338 67 117 8.7 13.0 0.00 0.00 0.00 39 1012.1
20260506132339 67 126 6.1 13.0 0.00 0.00 0.00 38 1012.1
20260506131344 67 128 8.7 13.0 0.00 0.00 0.00 39 1012.2
20260506130351 68 109 5.2 11.3 0.00 0.00 0.00 39 1012.3
20260506125349 67 129 6.1 13.9 0.00 0.00 0.00 39 1012.4
20260506124355 68 137 5.2 15.6 0.00 0.00 0.00 38 1012.2
20260506123352 69 277 2.6 13.0 0.00 0.00 0.00 38 1012.2
20260506122353 70 149 4.3 9.6 0.00 0.00 0.00 38 1012.3
20260506121356 69 260 2.6 7.0 0.00 0.00 0.00 39 1012.4
20260506120356 69 235 2.6 9.6 0.00 0.00 0.00 38 1012.5
20260506115352 69 277 6.1 10.4 0.00 0.00 0.00 38 1012.6
20260506114354 68 263 0.9 7.8 0.00 0.00 0.00 39 1012.6
20260506113339 68 161 0.9 6.1 0.00 0.00 0.00 39 1012.6
20260506112337 68 262 6.1 9.6 0.00 0.00 0.00 41 1012.5
20260506111338 68 255 3.5 9.6 0.00 0.00 0.00 40 1012.7
20260506110340 68 328 2.6 4.3 0.00 0.00 0.00 41 1012.9
20260506105359 66 82 0.9 7.0 0.00 0.00 0.00 42 1012.8
20260506104356 66 14 2.6 7.8 0.00 0.00 0.00 42 1013.1
20260506103343 66 53 0.9 5.2 0.00 0.00 0.00 43 1013.1
20260506102337 66 271 1.7 4.3 0.00 0.00 0.00 45 1013.2